| time (UTC) | temp F | wind direction | speed MPH | gust MPH | rain 1hr in | rain 24hr in | rain mn in | humidity % | barometer mb |
| 20260502180203 | 87 | 152 | 7.0 | 15.0 | 0.00 | 0.00 | 0.00 | 28 | 1013.9 |
| 20260502170202 | 84 | 165 | 5.0 | 18.0 | 0.00 | 0.00 | 0.00 | 30 | 1014.2 |
| 20260502164203 | 83 | 134 | 12.0 | 18.0 | 0.00 | 0.00 | 0.00 | 32 | 1014.2 |
| 20260502162202 | 80 | 121 | 6.0 | 22.0 | 0.00 | 0.00 | 0.00 | 34 | 1013.9 |
| 20260502161201 | 82 | 157 | 6.0 | 24.0 | 0.00 | 0.00 | 0.00 | 33 | 1013.9 |
| 20260502160203 | 80 | 163 | 10.0 | 25.0 | 0.00 | 0.00 | 0.00 | 35 | 1013.4 |
| 20260502152200 | 79 | 116 | 8.0 | 26.0 | 0.00 | 0.00 | 0.00 | 36 | 1013.3 |
| 20260502151201 | 77 | 179 | 4.0 | 27.0 | 0.00 | 0.00 | 0.00 | 38 | 1013.1 |
| 20260502150151 | 77 | 183 | 3.0 | 17.0 | 0.00 | 0.00 | 0.00 | 38 | 1013.0 |
| 20260502130136 | 72 | 159 | 5.0 | 12.0 | 0.00 | 0.00 | 0.00 | 41 | 1012.0 |
| 20260502123136 | 72 | 131 | 10.0 | 14.0 | 0.00 | 0.00 | 0.00 | 38 | 1011.5 |
| 20260502122137 | 71 | 147 | 6.0 | 7.0 | 0.00 | 0.00 | 0.00 | 35 | 1011.5 |
| 20260502121136 | 71 | 130 | 4.0 | 6.0 | 0.00 | 0.00 | 0.00 | 34 | 1011.5 |
| 20260502120135 | 70 | 173 | 2.0 | 4.0 | 0.00 | 0.00 | 0.00 | 33 | 1011.1 |
| 20260502115136 | 71 | 176 | 2.0 | 4.0 | 0.00 | 0.00 | 0.00 | 32 | 1011.2 |
| 20260502114140 | 71 | 151 | 3.0 | 6.0 | 0.00 | 0.00 | 0.00 | 31 | 1011.2 |
| 20260502112135 | 71 | 212 | 2.0 | 5.0 | 0.00 | 0.00 | 0.00 | 30 | 1011.1 |
| 20260502111137 | 69 | 190 | 1.0 | 3.0 | 0.00 | 0.00 | 0.00 | 30 | 1011.2 |
| 20260502110135 | 69 | 180 | 2.0 | 4.0 | 0.00 | 0.00 | 0.00 | 30 | 1011.0 |
| 20260502105131 | 68 | 165 | 3.0 | 3.0 | 0.00 | 0.00 | 0.00 | 31 | 1011.1 |
| 20260502103132 | 68 | 159 | 2.0 | 2.0 | 0.00 | 0.00 | 0.00 | 32 | 1010.9 |
| 20260502102130 | 68 | 237 | 0.0 | 2.0 | 0.00 | 0.00 | 0.00 | 32 | 1010.9 |
| 20260502101132 | 68 | 209 | 2.0 | 3.0 | 0.00 | 0.00 | 0.00 | 31 | 1011.0 |
| 20260502100131 | 69 | 211 | 2.0 | 3.0 | 0.00 | 0.00 | 0.00 | 31 | 1011.0 |
| 20260502091130 | 71 | 152 | 2.0 | 8.0 | 0.00 | 0.00 | 0.00 | 29 | 1010.8 |
| 20260502090131 | 71 | 179 | 3.0 | 8.0 | 0.00 | 0.00 | 0.00 | 30 | 1011.0 |
| 20260502065132 | 71 | 204 | 1.0 | 2.0 | 0.00 | 0.00 | 0.00 | 30 | 1010.8 |
| 20260502064131 | 71 | 223 | 1.0 | 2.0 | 0.00 | 0.00 | 0.00 | 30 | 1010.6 |
| 20260502063132 | 71 | 228 | 1.0 | 2.0 | 0.00 | 0.00 | 0.00 | 30 | 1010.7 |
| 20260502062129 | 71 | 195 | 2.0 | 2.0 | 0.00 | 0.00 | 0.00 | 30 | 1010.7 |
| 20260502060130 | 72 | 226 | 1.0 | 2.0 | 0.00 | 0.00 | 0.00 | 30 | 1010.4 |
| 20260502055131 | 72 | 210 | 1.0 | 2.0 | 0.00 | 0.00 | 0.00 | 30 | 1010.6 |
| 20260502054131 | 73 | 200 | 1.0 | 2.0 | 0.00 | 0.00 | 0.00 | 30 | 1010.2 |
| 20260502052131 | 73 | 213 | 1.0 | 2.0 | 0.00 | 0.00 | 0.00 | 30 | 1010.2 |
| 20260502050131 | 74 | 204 | 1.0 | 3.0 | 0.00 | 0.00 | 0.00 | 30 | 1010.1 |
| 20260502045131 | 74 | 224 | 2.0 | 3.0 | 0.00 | 0.00 | 0.00 | 29 | 1010.0 |
| 20260502044131 | 76 | 254 | 1.0 | 2.0 | 0.00 | 0.00 | 0.00 | 28 | 1010.1 |
| 20260502043131 | 76 | 265 | 2.0 | 2.0 | 0.00 | 0.00 | 0.00 | 28 | 1009.9 |
| 20260502042131 | 77 | 256 | 1.0 | 2.0 | 0.00 | 0.00 | 0.00 | 27 | 1010.0 |
| 20260502041131 | 77 | 266 | 1.0 | 2.0 | 0.00 | 0.00 | 0.00 | 27 | 1009.8 |
| 20260502040131 | 79 | 273 | 2.0 | 3.0 | 0.00 | 0.00 | 0.00 | 26 | 1009.6 |
| 20260502034130 | 79 | 276 | 2.0 | 3.0 | 0.00 | 0.00 | 0.00 | 26 | 1009.4 |
| 20260502033130 | 80 | 272 | 1.0 | 3.0 | 0.00 | 0.00 | 0.00 | 26 | 1009.2 |
| 20260502032130 | 80 | 269 | 2.0 | 3.0 | 0.00 | 0.00 | 0.00 | 26 | 1008.9 |
| 20260502031131 | 80 | 282 | 2.0 | 3.0 | 0.00 | 0.00 | 0.00 | 27 | 1009.0 |
| 20260502030132 | 81 | 262 | 2.0 | 5.0 | 0.00 | 0.00 | 0.00 | 25 | 1009.0 |
| 20260502024131 | 82 | 275 | 3.0 | 5.0 | 0.00 | 0.00 | 0.00 | 25 | 1008.5 |
| 20260502023136 | 82 | 278 | 3.0 | 4.0 | 0.00 | 0.00 | 0.00 | 25 | 1008.6 |
| 20260502022132 | 83 | 276 | 3.0 | 6.0 | 0.00 | 0.00 | 0.00 | 25 | 1008.4 |
| 20260502021131 | 84 | 276 | 3.0 | 6.0 | 0.00 | 0.00 | 0.00 | 24 | 1008.4 |
| 20260502020145 | 84 | 302 | 3.0 | 7.0 | 0.00 | 0.00 | 0.00 | 24 | 1008.3 |
| 20260502015131 | 84 | 285 | 2.0 | 5.0 | 0.00 | 0.00 | 0.00 | 23 | 1008.1 |
| 20260502014130 | 85 | 231 | 2.0 | 9.0 | 0.00 | 0.00 | 0.00 | 23 | 1008.2 |
| 20260502013131 | 86 | 285 | 3.0 | 8.0 | 0.00 | 0.00 | 0.00 | 23 | 1008.1 |
| 20260502012131 | 86 | 257 | 2.0 | 9.0 | 0.00 | 0.00 | 0.00 | 22 | 1008.0 |
| 20260502011131 | 87 | 292 | 6.0 | 6.0 | 0.00 | 0.00 | 0.00 | 22 | 1007.8 |
| 20260502010132 | 87 | 348 | 2.0 | 10.0 | 0.00 | 0.00 | 0.00 | 22 | 1008.0 |
| 20260502005130 | 89 | 241 | 3.0 | 6.0 | 0.00 | 0.00 | 0.00 | 22 | 1007.8 |
| 20260502004131 | 88 | 233 | 4.0 | 8.0 | 0.00 | 0.00 | 0.00 | 22 | 1008.0 |
| 20260502003130 | 88 | 305 | 1.0 | 11.0 | 0.00 | 0.00 | 0.00 | 22 | 1007.9 |
| 20260502002131 | 89 | 273 | 5.0 | 9.0 | 0.00 | 0.00 | 0.00 | 21 | 1008.0 |
| 20260502001131 | 90 | 16 | 2.0 | 8.0 | 0.00 | 0.00 | 0.00 | 20 | 1008.1 |
| 20260502000130 | 90 | 294 | 3.0 | 8.0 | 0.00 | 0.00 | 0.00 | 20 | 1008.0 |
| 20260501235130 | 89 | 295 | 4.0 | 12.0 | 0.00 | 0.00 | 0.00 | 20 | 1008.0 |
| 20260501234131 | 89 | 332 | 3.0 | 11.0 | 0.00 | 0.00 | 0.00 | 22 | 1007.9 |
| 20260501233130 | 90 | 277 | 1.0 | 9.0 | 0.00 | 0.00 | 0.00 | 21 | 1008.2 |
| 20260501232136 | 88 | 21 | 3.0 | 14.0 | 0.00 | 0.00 | 0.00 | 22 | 1008.3 |
| 20260501231131 | 89 | 312 | 2.0 | 11.0 | 0.00 | 0.00 | 0.00 | 21 | 1008.3 |
| 20260501230131 | 89 | 342 | 3.0 | 7.0 | 0.00 | 0.00 | 0.00 | 21 | 1008.2 |
| 20260501224131 | 89 | 280 | 5.0 | 10.0 | 0.00 | 0.00 | 0.00 | 22 | 1008.2 |
| 20260501223131 | 89 | 318 | 4.0 | 11.0 | 0.00 | 0.00 | 0.00 | 23 | 1008.5 |
| 20260501222133 | 90 | 221 | 4.0 | 12.0 | 0.00 | 0.00 | 0.00 | 21 | 1008.6 |
| 20260501221131 | 89 | 294 | 1.0 | 13.0 | 0.00 | 0.00 | 0.00 | 22 | 1008.6 |
| 20260501220131 | 89 | 193 | 1.0 | 5.0 | 0.00 | 0.00 | 0.00 | 22 | 1008.5 |
| 20260501215131 | 89 | 172 | 2.0 | 7.0 | 0.00 | 0.00 | 0.00 | 23 | 1008.9 |
| 20260501214131 | 88 | 276 | 4.0 | 7.0 | 0.00 | 0.00 | 0.00 | 24 | 1009.0 |
| 20260501213131 | 89 | 337 | 3.0 | 6.0 | 0.00 | 0.00 | 0.00 | 24 | 1009.4 |
| 20260501212131 | 88 | 271 | 3.0 | 10.0 | 0.00 | 0.00 | 0.00 | 23 | 1009.5 |
| 20260501210130 | 88 | 181 | 1.0 | 6.0 | 0.00 | 0.00 | 0.00 | 24 | 1009.6 |
| 20260501205130 | 89 | 219 | 3.0 | 7.0 | 0.00 | 0.00 | 0.00 | 24 | 1009.6 |
| 20260501204131 | 87 | 175 | 1.0 | 9.0 | 0.00 | 0.00 | 0.00 | 25 | 1009.9 |
| 20260501203131 | 87 | 219 | 3.0 | 13.0 | 0.00 | 0.00 | 0.00 | 25 | 1010.0 |
| 20260501202133 | 88 | 193 | 2.0 | 6.0 | 0.00 | 0.00 | 0.00 | 24 | 1010.1 |
| 20260501201135 | 87 | 231 | 5.0 | 8.0 | 0.00 | 0.00 | 0.00 | 25 | 1010.4 |
| 20260501200131 | 85 | 320 | 1.0 | 6.0 | 0.00 | 0.00 | 0.00 | 26 | 1010.2 |
| 20260501194132 | 85 | 266 | 3.0 | 10.0 | 0.00 | 0.00 | 0.00 | 26 | 1010.4 |
| 20260501192131 | 85 | 324 | 5.0 | 10.0 | 0.00 | 0.00 | 0.00 | 27 | 1010.7 |
| 20260501191131 | 85 | 128 | 1.0 | 6.0 | 0.00 | 0.00 | 0.00 | 27 | 1010.8 |
| 20260501190132 | 84 | 260 | 3.0 | 6.0 | 0.00 | 0.00 | 0.00 | 28 | 1011.1 |
| 20260501185131 | 82 | 307 | 2.0 | 6.0 | 0.00 | 0.00 | 0.00 | 29 | 1011.0 |
| 20260501184130 | 82 | 269 | 5.0 | 8.0 | 0.00 | 0.00 | 0.00 | 29 | 1011.6 |
| 20260501183131 | 82 | 339 | 4.0 | 6.0 | 0.00 | 0.00 | 0.00 | 29 | 1011.7 |
| 20260501182132 | 81 | 272 | 2.0 | 8.0 | 0.00 | 0.00 | 0.00 | 30 | 1011.7 |
| 20260501181131 | 81 | 252 | 3.0 | 6.0 | 0.00 | 0.00 | 0.00 | 30 | 1011.7 |